Showing default

COSMOS 1833, 17589

Orbit data source: Space-Track

COSMOS 1833, 17589 is a payload satellite owned by GRU (CIS) in LEO that was launched on Wed, 18 Mar 1987 UTC via a ZENIT-2 launch vehicle from the Tyuratam Missile And Space Complex (TTMTR). Payload-class satellites include a variety of spacecraft equipped with specific instruments for various scientific and technological missions. These include communications satellites like Starlink; space stations such as the ISS; scientific satellites like the Hubble; Earth observation satellites from companies like Planet Labs, Umbra, and HawkEye 360; GPS; miniature CubeSats for education and research; and military/defense satellites.

Loading next visibility...
Identifier
17589, 1987-027A
Orbit
LEO
Country
Flag of CISCIS
Related business
Manufacturer
Yuzhnoe
Mission
Defense Sigint
Bus & Motor
TSELINA-2, Unknown motor
Mass
3,250 kg wet, 3,250 kg dry
Launch date (UTC)
1987-03-18 (39 years ago)
Launch vehicle
ZENIT-2
Launch site
Tyuratam Missile And Space Complex (TTMTR)
Object type
Payload
Rocket body
Debris
Shape & HBR
Cyl + 2 Pan + 1 Ant, 11.3 m
Radar Cross Section
16.265 m², Large (>1 m²)

Expand to show TLE details & history
Last TLE update: 11 hours ago

TLE from 11 hours ago
0 COSMOS 1833
1 17589U 87027A   26130.51861249 -.00000046  00000-0  90417-6 0  9990
2 17589  70.9149 196.0519 0022362 117.4961 242.8437 14.13031543 19057
Epoch: 2026-05-10T12:26Z
TLE epoch observation values (Epoch: 2026-05-10T12:26:48.119Z)
Latitude
0.00003°
Longitude
141.03088°
Altitude
858.815 km
Speed
7.42 km/s
True Right ascension
13h 04m 12s
True Declination
0° 00' 00"
Sunlit
Object was in full shadow at epoch
Visualization orbit readout
Latitude
Unknown
Longitude
Unknown
Altitude
Unknown
Speed
Unknown
Apparent Right ascension
Unknown
Apparent Declination
Unknown
Sunlit
N/A
Visualization observer readout
Local Sidereal Time
07:21:08
Azimuth
Unknown
Elevation
Unknown
Doppler factor
Unknown
Orbital elements
Apogee altitude
863.108 km
Perigee altitude
830.795 km
Semi-major axis
7,225.089 km
Eccentricity
0.00224
Inclination
70.9149°
RAAN
196.0519°
Arg. of periapsis
117.4961°
True anomaly
242.61599°
Mean anomaly
242.8437°
Eccentric anomaly
242.72982°
Mean motion
3.5341 °/min
Orbital period
101.86 mins
BSTAR
9.0417e-7
Loading maneuver chart data...
Computing Atmospheric mass density...
Loading historical data...
Loading historical data...
Loading historical data...
Loading historical data...
Loading historical data...
Loading historical data...
Loading historical data...

Documentation

Showing up to 5 results
|